QPF
0.00 0.00 0.00 0.00 0.00 0.00 0.00 0.00 0.00 0.00 0.00 0.00 0.00 0.00 0.00 0.00 0.00 0.00 0.00 0.00 0.00 0.00 0.00 0.00 0.00 0.00 0.01 0.01 0.01 0.01 0.01 0.01 0.01 0.02 0.01 0.01 0.01 0.02 0.03 0.03 0.02 0.01 0.02
0.00 0.00 0.00 0.00 0.00 0.00 0.00 0.00 0.00 0.00 0.00 0.00 0.00 0.00 0.00 0.00 0.00 0.00 0.00 0.00 0.00 0.00 0.00 0.00 0.00 0.00 0.00 0.01 0.00 0.00 0.00 0.00 0.01 0.02 0.02 0.01 0.01 0.02 0.03 0.03 0.01 0.01 0.02
0.00 0.00 0.00 0.00 0.00 0.00 0.00 0.00 0.00 0.00 0.00 0.00 0.00 0.00 0.00 0.00 0.00 0.00 0.00 0.00 0.00 0.00 0.00 0.00 0.00 0.00 0.00 0.00 0.00 0.00 0.00 0.01 0.02 0.02 0.02 0.01 0.01 0.03 0.04 0.03 0.01 0.01 0.01
0.00 0.00 0.00 0.00 0.00 0.00 0.00 0.00 0.00 0.00 0.00 0.00 0.00 0.00 0.00 0.00 0.00 0.00 0.00 0.00 0.00 0.00 0.00 0.00 0.00 0.00 0.00 0.00 0.00 0.00 0.00 0.01 0.02 0.03 0.03 0.01 0.00 0.02 0.02 0.02 0.01 0.01 0.01
0.00 0.00 0.00 0.00 0.00 0.00 0.00 0.00 0.00 0.00 0.00 0.00 0.00 0.00 0.00 0.00 0.00 0.00 0.00 0.00 0.00 0.00 0.00 0.00 0.00 0.00 0.00 0.00 0.00 0.00 0.00 0.01 0.02 0.04 0.04 0.01 0.00 0.02 0.01 0.01 0.01 0.01 0.01
0.00 0.00 0.00 0.00 0.00 0.00 0.00 0.00 0.00 0.00 0.00 0.00 0.00 0.00 0.00 0.00 0.00 0.00 0.00 0.00 0.00 0.00 0.00 0.00 0.00 0.00 0.00 0.00 0.00 0.00 0.00 0.01 0.02 0.03 0.03 0.02 0.01 0.01 0.01 0.01 0.01 0.00 0.00
0.00 0.00 0.00 0.00 0.00 0.00 0.00 0.00 0.00 0.00 0.00 0.00 0.00 0.00 0.00 0.00 0.00 0.00 0.00 0.00 0.00 0.00 0.00 0.00 0.00 0.00 0.00 0.00 0.00 0.00 0.00 0.01 0.01 0.03 0.04 0.03 0.02 0.01 0.01 0.01 0.00 0.00 0.00
0.00 0.00 0.00 0.00 0.00 0.00 0.00 0.00 0.00 0.00 0.00 0.00 0.00 0.00 0.00 0.00 0.00 0.00 0.00 0.00 0.00 0.00 0.00 0.00 0.00 0.00 0.00 0.00 0.00 0.00 0.00 0.00 0.01 0.02 0.04 0.04 0.02 0.02 0.01 0.00 0.00 0.00 0.00
0.00 0.00 0.00 0.00 0.00 0.00 0.00 0.00 0.00 0.00 0.00 0.00 0.00 0.00 0.00 0.00 0.00 0.00 0.00 0.00 0.00 0.00 0.00 0.00 0.00 0.00 0.00 0.00 0.00 0.00 0.00 0.00 0.00 0.01 0.04 0.04 0.04 0.03 0.01 0.01 0.01 0.00 0.00
0.01 0.00 0.00 0.00 0.00 0.00 0.00 0.00 0.00 0.00 0.00 0.00 0.00 0.00 0.00 0.00 0.00 0.00 0.00 0.00 0.00 0.00 0.00 0.00 0.00 0.00 0.00 0.00 0.00 0.00 0.00 0.00 0.00 0.01 0.03 0.03 0.06 0.06 0.03 0.01 0.01 0.00 0.00
0.03 0.01 0.00 0.00 0.00 0.00 0.00 0.00 0.00 0.00 0.00 0.00 0.01 0.01 0.00 0.00 0.00 0.00 0.00 0.00 0.00 0.01 0.01 0.01 0.01 0.01 0.01 0.00 0.01 0.01 0.00 0.00 0.00 0.01 0.02 0.04 0.07 0.08 0.06 0.03 0.01 0.01 0.00
0.07 0.04 0.03 0.01 0.00 0.00 0.00 0.00 0.00 0.01 0.01 0.01 0.02 0.02 0.01 0.01 0.00 0.00 0.01 0.02 0.02 0.03 0.02 0.02 0.02 0.02 0.01 0.01 0.01 0.02 0.01 0.00 0.01 0.01 0.02 0.05 0.08 0.11 0.08 0.04 0.02 0.01 0.00
0.08 0.09 0.08 0.05 0.02 0.02 0.02 0.02 0.03 0.02 0.04 0.05 0.06 0.05 0.03 0.03 0.02 0.02 0.04 0.05 0.06 0.07 0.05 0.04 0.04 0.02 0.01 0.01 0.01 0.01 0.01 0.01 0.01 0.01 0.02 0.07 0.09 0.11 0.09 0.05 0.02 0.01 0.00
0.21 0.19 0.16 0.14 0.10 0.08 0.07 0.06 0.06 0.07 0.11 0.16 0.13 0.12 0.12 0.12 0.08 0.07 0.08 0.09 0.10 0.11 0.11 0.11 0.08 0.06 0.04 0.04 0.04 0.04 0.05 0.06 0.05 0.05 0.05 0.08 0.09 0.09 0.10 0.07 0.04 0.02 0.01
0.28 0.22 0.21 0.22 0.19 0.16 0.16 0.15 0.14 0.15 0.19 0.20 0.23 0.24 0.22 0.23 0.20 0.16 0.14 0.15 0.19 0.23 0.18 0.16 0.14 0.14 0.12 0.10 0.09 0.08 0.07 0.09 0.08 0.08 0.08 0.10 0.13 0.15 0.17 0.13 0.09 0.04 0.02
0.32 0.25 0.29 0.28 0.29 0.30 0.28 0.27 0.25 0.26 0.33 0.37 0.36 0.33 0.30 0.28 0.25 0.18 0.15 0.16 0.18 0.22 0.25 0.23 0.20 0.21 0.22 0.19 0.15 0.14 0.12 0.09 0.09 0.09 0.10 0.12 0.17 0.18 0.19 0.17 0.12 0.08 0.04
0.22 0.22 0.28 0.33 0.32 0.34 0.33 0.30 0.30 0.29 0.29 0.31 0.35 0.37 0.42 0.40 0.30 0.22 0.18 0.18 0.18 0.19 0.23 0.27 0.25 0.23 0.21 0.20 0.18 0.16 0.14 0.10 0.11 0.12 0.13 0.14 0.14 0.16 0.16 0.13 0.10 0.08 0.06
0.15 0.18 0.23 0.25 0.27 0.27 0.27 0.30 0.31 0.25 0.26 0.34 0.34 0.30 0.33 0.34 0.27 0.24 0.21 0.19 0.21 0.22 0.23 0.25 0.28 0.28 0.23 0.21 0.18 0.14 0.12 0.11 0.10 0.12 0.13 0.12 0.13 0.11 0.10 0.10 0.09 0.08 0.07
0.12 0.15 0.18 0.19 0.19 0.20 0.20 0.22 0.21 0.20 0.21 0.24 0.23 0.24 0.24 0.21 0.22 0.25 0.22 0.19 0.24 0.27 0.26 0.23 0.23 0.25 0.25 0.21 0.18 0.14 0.12 0.09 0.08 0.09 0.11 0.09 0.09 0.10 0.09 0.07 0.09 0.09 0.09
0.07 0.08 0.08 0.09 0.09 0.11 0.10 0.11 0.12 0.15 0.14 0.14 0.14 0.13 0.10 0.09 0.11 0.12 0.13 0.16 0.18 0.20 0.24 0.25 0.22 0.21 0.19 0.19 0.19 0.17 0.12 0.09 0.08 0.09 0.09 0.08 0.07 0.07 0.07 0.06 0.05 0.05 0.08
0.03 0.04 0.04 0.05 0.05 0.06 0.06 0.08 0.09 0.11 0.11 0.10 0.08 0.06 0.04 0.04 0.04 0.05 0.07 0.11 0.14 0.14 0.17 0.21 0.21 0.18 0.15 0.17 0.19 0.17 0.16 0.12 0.11 0.10 0.11 0.10 0.08 0.07 0.06 0.06 0.07 0.04 0.04
0.02 0.02 0.03 0.04 0.04 0.04 0.05 0.05 0.05 0.06 0.06 0.06 0.05 0.04 0.03 0.03 0.04 0.05 0.08 0.10 0.13 0.15 0.19 0.21 0.23 0.21 0.15 0.16 0.16 0.14 0.12 0.11 0.11 0.10 0.10 0.09 0.08 0.10 0.10 0.07 0.07 0.05 0.05
0.00 0.01 0.01 0.02 0.02 0.03 0.03 0.04 0.04 0.03 0.03 0.04 0.04 0.04 0.04 0.04 0.04 0.04 0.06 0.09 0.11 0.11 0.17 0.22 0.19 0.19 0.16 0.14 0.15 0.14 0.10 0.07 0.06 0.08 0.08 0.08 0.09 0.09 0.13 0.09 0.05 0.04 0.04
0.00 0.00 0.00 0.01 0.01 0.01 0.01 0.01 0.02 0.02 0.02 0.02 0.03 0.03 0.04 0.04 0.03 0.03 0.04 0.05 0.07 0.09 0.16 0.22 0.21 0.20 0.18 0.16 0.18 0.16 0.12 0.09 0.07 0.06 0.08 0.08 0.08 0.07 0.08 0.07 0.06 0.05 0.05
0.00 0.00 0.00 0.00 0.00 0.00 0.00 0.00 0.01 0.01 0.01 0.01 0.01 0.01 0.01 0.02 0.02 0.03 0.04 0.04 0.04 0.06 0.10 0.16 0.24 0.27 0.25 0.23 0.20 0.17 0.16 0.15 0.10 0.07 0.06 0.08 0.07 0.04 0.04 0.04 0.05 0.06 0.05
0.00 0.01 0.01 0.01 0.01 0.01 0.01 0.01 0.01 0.01 0.01 0.01 0.00 0.01 0.01 0.01 0.01 0.02 0.03 0.04 0.03 0.04 0.05 0.06 0.10 0.16 0.21 0.25 0.23 0.19 0.19 0.20 0.16 0.12 0.09 0.07 0.06 0.04 0.04 0.04 0.04 0.04 0.04
MSLP
1009.98 1009.68 1009.50 1009.51 1009.71 1010.08 1010.55 1011.05 1011.50 1011.87 1012.15 1012.35 1012.53 1012.71 1012.94 1013.21 1013.52 1013.84 1014.14 1014.40 1014.60 1014.74 1014.86 1014.97 1015.08 1015.21 1015.36 1015.50 1015.63 1015.74 1015.81 1015.87 1015.91 1015.96 1016.05 1016.16 1016.31 1016.48 1016.66 1016.83 1016.99 1017.12 1017.25
1009.69 1009.47 1009.37 1009.44 1009.70 1010.08 1010.55 1011.04 1011.49 1011.87 1012.17 1012.44 1012.68 1012.95 1013.24 1013.56 1013.89 1014.19 1014.45 1014.66 1014.81 1014.92 1015.01 1015.11 1015.22 1015.36 1015.50 1015.63 1015.74 1015.82 1015.87 1015.91 1015.95 1016.03 1016.14 1016.29 1016.48 1016.69 1016.90 1017.09 1017.25 1017.39 1017.51
1009.37 1009.24 1009.22 1009.37 1009.68 1010.09 1010.57 1011.05 1011.49 1011.88 1012.21 1012.52 1012.83 1013.15 1013.50 1013.84 1014.17 1014.44 1014.66 1014.80 1014.90 1014.97 1015.05 1015.14 1015.26 1015.41 1015.56 1015.68 1015.78 1015.85 1015.89 1015.92 1015.98 1016.07 1016.22 1016.41 1016.64 1016.88 1017.11 1017.31 1017.48 1017.62 1017.74
1009.09 1009.05 1009.13 1009.36 1009.72 1010.17 1010.65 1011.11 1011.53 1011.91 1012.25 1012.58 1012.92 1013.28 1013.64 1013.99 1014.30 1014.54 1014.70 1014.80 1014.86 1014.91 1014.98 1015.08 1015.22 1015.39 1015.55 1015.68 1015.78 1015.84 1015.88 1015.92 1016.00 1016.12 1016.30 1016.52 1016.78 1017.04 1017.27 1017.48 1017.65 1017.80 1017.93
1008.92 1008.97 1009.15 1009.47 1009.88 1010.34 1010.80 1011.23 1011.61 1011.95 1012.26 1012.58 1012.92 1013.28 1013.65 1013.98 1014.26 1014.47 1014.59 1014.66 1014.71 1014.75 1014.84 1014.97 1015.14 1015.34 1015.52 1015.68 1015.79 1015.85 1015.90 1015.95 1016.04 1016.18 1016.37 1016.61 1016.88 1017.14 1017.38 1017.58 1017.75 1017.90 1018.05
1008.87 1009.03 1009.30 1009.69 1010.14 1010.60 1011.03 1011.40 1011.71 1011.98 1012.24 1012.52 1012.83 1013.17 1013.52 1013.83 1014.09 1014.27 1014.38 1014.44 1014.49 1014.57 1014.69 1014.86 1015.08 1015.31 1015.53 1015.70 1015.82 1015.90 1015.95 1016.01 1016.10 1016.25 1016.45 1016.68 1016.94 1017.18 1017.40 1017.60 1017.77 1017.93 1018.11
1008.94 1009.19 1009.55 1009.99 1010.46 1010.90 1011.28 1011.58 1011.81 1011.99 1012.18 1012.41 1012.68 1012.99 1013.31 1013.60 1013.84 1014.02 1014.13 1014.21 1014.29 1014.41 1014.57 1014.80 1015.06 1015.33 1015.58 1015.77 1015.90 1015.98 1016.03 1016.09 1016.18 1016.31 1016.50 1016.71 1016.94 1017.15 1017.35 1017.53 1017.69 1017.87 1018.08
1009.06 1009.39 1009.82 1010.31 1010.79 1011.21 1011.53 1011.74 1011.88 1011.99 1012.11 1012.28 1012.51 1012.79 1013.09 1013.37 1013.61 1013.79 1013.92 1014.03 1014.15 1014.30 1014.52 1014.79 1015.09 1015.39 1015.65 1015.85 1015.98 1016.06 1016.11 1016.16 1016.23 1016.34 1016.50 1016.68 1016.86 1017.05 1017.21 1017.37 1017.54 1017.74 1017.98
1009.18 1009.57 1010.06 1010.58 1011.06 1011.45 1011.71 1011.86 1011.94 1011.98 1012.05 1012.18 1012.38 1012.65 1012.94 1013.22 1013.46 1013.65 1013.80 1013.93 1014.08 1014.26 1014.51 1014.80 1015.11 1015.41 1015.67 1015.87 1016.00 1016.07 1016.11 1016.15 1016.21 1016.30 1016.42 1016.57 1016.71 1016.86 1017.00 1017.15 1017.33 1017.54 1017.82
1009.24 1009.69 1010.22 1010.75 1011.23 1011.59 1011.81 1011.92 1011.96 1011.97 1012.02 1012.14 1012.34 1012.61 1012.90 1013.19 1013.43 1013.62 1013.78 1013.91 1014.06 1014.25 1014.49 1014.76 1015.06 1015.35 1015.59 1015.77 1015.89 1015.96 1015.99 1016.03 1016.08 1016.16 1016.26 1016.37 1016.49 1016.61 1016.73 1016.88 1017.06 1017.31 1017.62
1009.24 1009.73 1010.28 1010.82 1011.29 1011.62 1011.83 1011.92 1011.95 1011.97 1012.04 1012.18 1012.40 1012.68 1012.98 1013.26 1013.50 1013.68 1013.81 1013.92 1014.04 1014.20 1014.40 1014.64 1014.89 1015.14 1015.35 1015.51 1015.61 1015.68 1015.72 1015.77 1015.83 1015.90 1015.99 1016.10 1016.20 1016.31 1016.43 1016.58 1016.78 1017.05 1017.39
1009.23 1009.73 1010.29 1010.81 1011.26 1011.58 1011.77 1011.87 1011.92 1011.98 1012.08 1012.27 1012.52 1012.82 1013.12 1013.39 1013.60 1013.75 1013.84 1013.91 1013.98 1014.07 1014.21 1014.38 1014.57 1014.77 1014.93 1015.07 1015.17 1015.25 1015.31 1015.38 1015.46 1015.56 1015.66 1015.77 1015.87 1015.98 1016.10 1016.26 1016.48 1016.78 1017.14
1009.26 1009.76 1010.28 1010.78 1011.18 1011.47 1011.66 1011.77 1011.86 1011.97 1012.13 1012.36 1012.64 1012.95 1013.25 1013.49 1013.67 1013.77 1013.81 1013.81 1013.82 1013.85 1013.91 1014.01 1014.14 1014.27 1014.40 1014.51 1014.61 1014.71 1014.81 1014.91 1015.03 1015.16 1015.29 1015.41 1015.52 1015.63 1015.77 1015.94 1016.17 1016.48 1016.86
1009.42 1009.87 1010.34 1010.77 1011.11 1011.36 1011.53 1011.65 1011.78 1011.93 1012.14 1012.41 1012.72 1013.02 1013.29 1013.50 1013.63 1013.68 1013.67 1013.62 1013.57 1013.54 1013.54 1013.58 1013.64 1013.72 1013.81 1013.91 1014.02 1014.13 1014.27 1014.42 1014.58 1014.74 1014.90 1015.04 1015.17 1015.29 1015.43 1015.60 1015.84 1016.16 1016.54
1009.74 1010.13 1010.50 1010.83 1011.08 1011.27 1011.40 1011.53 1011.67 1011.86 1012.10 1012.39 1012.69 1012.98 1013.21 1013.37 1013.46 1013.46 1013.42 1013.34 1013.27 1013.21 1013.17 1013.17 1013.19 1013.23 1013.29 1013.37 1013.47 1013.60 1013.76 1013.94 1014.14 1014.33 1014.51 1014.67 1014.80 1014.93 1015.06 1015.23 1015.47 1015.77 1016.15
1010.25 1010.53 1010.78 1010.98 1011.12 1011.22 1011.31 1011.41 1011.56 1011.76 1012.01 1012.29 1012.57 1012.81 1012.99 1013.11 1013.15 1013.13 1013.08 1013.02 1012.95 1012.91 1012.88 1012.87 1012.87 1012.88 1012.91 1012.96 1013.04 1013.16 1013.32 1013.51 1013.72 1013.93 1014.11 1014.27 1014.41 1014.52 1014.65 1014.81 1015.03 1015.31 1015.68
1010.88 1011.04 1011.14 1011.20 1011.22 1011.23 1011.26 1011.34 1011.47 1011.67 1011.91 1012.16 1012.38 1012.56 1012.69 1012.75 1012.76 1012.75 1012.72 1012.70 1012.70 1012.71 1012.72 1012.73 1012.72 1012.71 1012.70 1012.70 1012.73 1012.81 1012.93 1013.10 1013.29 1013.48 1013.66 1013.82 1013.94 1014.05 1014.16 1014.30 1014.50 1014.77 1015.11
1011.56 1011.58 1011.54 1011.46 1011.36 1011.29 1011.27 1011.32 1011.45 1011.63 1011.85 1012.05 1012.21 1012.32 1012.37 1012.38 1012.38 1012.38 1012.40 1012.46 1012.54 1012.62 1012.70 1012.74 1012.73 1012.69 1012.62 1012.54 1012.49 1012.49 1012.54 1012.65 1012.79 1012.95 1013.11 1013.25 1013.36 1013.46 1013.56 1013.69 1013.88 1014.13 1014.45
1012.20 1012.09 1011.92 1011.71 1011.52 1011.39 1011.35 1011.40 1011.52 1011.70 1011.88 1012.03 1012.12 1012.15 1012.13 1012.09 1012.06 1012.07 1012.15 1012.29 1012.46 1012.64 1012.77 1012.84 1012.83 1012.74 1012.58 1012.41 1012.24 1012.12 1012.07 1012.09 1012.16 1012.28 1012.40 1012.53 1012.64 1012.75 1012.86 1012.99 1013.18 1013.43 1013.74
1012.71 1012.50 1012.23 1011.94 1011.69 1011.54 1011.50 1011.57 1011.71 1011.90 1012.06 1012.16 1012.17 1012.12 1012.01 1011.91 1011.85 1011.87 1011.99 1012.19 1012.44 1012.68 1012.87 1012.95 1012.91 1012.75 1012.50 1012.19 1011.89 1011.63 1011.46 1011.37 1011.36 1011.43 1011.53 1011.66 1011.79 1011.91 1012.05 1012.22 1012.42 1012.68 1013.00
1013.08 1012.79 1012.45 1012.12 1011.86 1011.71 1011.71 1011.83 1012.02 1012.23 1012.38 1012.44 1012.38 1012.24 1012.04 1011.86 1011.75 1011.75 1011.89 1012.12 1012.41 1012.69 1012.89 1012.96 1012.87 1012.63 1012.26 1011.82 1011.37 1010.97 1010.67 1010.48 1010.40 1010.43 1010.52 1010.66 1010.82 1011.00 1011.19 1011.40 1011.64 1011.93 1012.26
1013.30 1012.98 1012.60 1012.26 1012.01 1011.92 1011.98 1012.16 1012.41 1012.65 1012.81 1012.83 1012.72 1012.48 1012.20 1011.93 1011.74 1011.70 1011.80 1012.02 1012.31 1012.59 1012.77 1012.80 1012.64 1012.30 1011.82 1011.25 1010.67 1010.15 1009.74 1009.47 1009.34 1009.34 1009.44 1009.61 1009.82 1010.06 1010.31 1010.58 1010.87 1011.20 1011.56
1013.44 1013.10 1012.72 1012.39 1012.18 1012.13 1012.26 1012.52 1012.83 1013.11 1013.28 1013.28 1013.10 1012.79 1012.41 1012.05 1011.78 1011.65 1011.69 1011.86 1012.10 1012.33 1012.46 1012.43 1012.20 1011.77 1011.19 1010.52 1009.85 1009.24 1008.76 1008.43 1008.27 1008.27 1008.39 1008.60 1008.87 1009.17 1009.49 1009.82 1010.16 1010.53 1010.91
1013.55 1013.21 1012.84 1012.53 1012.35 1012.36 1012.54 1012.85 1013.22 1013.53 1013.70 1013.68 1013.46 1013.08 1012.62 1012.16 1011.79 1011.57 1011.51 1011.60 1011.76 1011.92 1011.98 1011.88 1011.58 1011.09 1010.45 1009.73 1009.00 1008.35 1007.84 1007.49 1007.33 1007.34 1007.49 1007.74 1008.05 1008.41 1008.78 1009.15 1009.54 1009.93 1010.33
1013.71 1013.37 1013.00 1012.70 1012.54 1012.57 1012.78 1013.12 1013.50 1013.83 1014.00 1013.96 1013.70 1013.27 1012.74 1012.21 1011.75 1011.43 1011.28 1011.27 1011.34 1011.40 1011.39 1011.22 1010.88 1010.36 1009.70 1008.97 1008.25 1007.60 1007.10 1006.77 1006.63 1006.66 1006.84 1007.11 1007.45 1007.83 1008.22 1008.62 1009.01 1009.41 1009.80
1013.93 1013.60 1013.22 1012.90 1012.73 1012.75 1012.95 1013.29 1013.66 1013.97 1014.13 1014.07 1013.80 1013.33 1012.76 1012.17 1011.65 1011.25 1011.01 1010.90 1010.87 1010.86 1010.77 1010.56 1010.19 1009.67 1009.03 1008.34 1007.67 1007.08 1006.63 1006.34 1006.23 1006.29 1006.47 1006.75 1007.09 1007.46 1007.85 1008.23 1008.60 1008.98 1009.35
Thickness
5836 5837 5834 5831 5829 5826 5822 5818 5814 5810 5807 5804 5801 5798 5795 5793 5790 5787 5785 5782 5779 5777 5774 5771 5769 5767 5766 5764 5763 5761 5760 5759 5757 5756 5754 5753 5751 5749 5748 5747 5746 5744 5744
5844 5838 5834 5831 5828 5825 5821 5817 5813 5809 5806 5802 5799 5796 5794 5791 5789 5786 5783 5781 5779 5776 5773 5771 5768 5766 5765 5763 5762 5760 5759 5757 5756 5755 5753 5752 5750 5749 5747 5746 5745 5743 5742
5844 5838 5833 5830 5827 5823 5820 5816 5812 5808 5804 5801 5797 5794 5792 5789 5787 5784 5782 5780 5777 5775 5772 5770 5768 5766 5764 5762 5761 5759 5757 5756 5754 5753 5752 5751 5749 5748 5746 5745 5743 5742 5741
5844 5838 5833 5829 5826 5822 5818 5814 5810 5806 5803 5799 5796 5793 5790 5787 5785 5783 5781 5779 5776 5774 5771 5769 5767 5764 5763 5761 5760 5758 5756 5754 5753 5752 5750 5750 5749 5747 5745 5744 5743 5741 5740
5841 5836 5832 5827 5824 5820 5816 5812 5809 5805 5801 5798 5794 5791 5788 5786 5783 5781 5779 5777 5775 5772 5770 5768 5766 5764 5761 5760 5758 5757 5755 5753 5752 5751 5750 5749 5748 5746 5745 5743 5742 5741 5739
5836 5833 5829 5825 5821 5818 5814 5810 5806 5803 5799 5796 5793 5790 5787 5784 5782 5779 5777 5775 5773 5771 5768 5766 5764 5762 5760 5759 5757 5756 5754 5753 5751 5750 5749 5748 5747 5746 5744 5743 5741 5740 5739
5833 5829 5826 5822 5818 5815 5811 5808 5804 5801 5797 5794 5791 5788 5785 5782 5780 5778 5775 5773 5771 5769 5767 5764 5762 5760 5759 5758 5756 5755 5754 5752 5751 5750 5748 5747 5747 5746 5744 5743 5741 5739 5738
5830 5826 5822 5818 5815 5812 5808 5805 5801 5798 5795 5792 5789 5786 5783 5781 5778 5776 5774 5771 5769 5766 5764 5763 5760 5758 5757 5756 5755 5754 5753 5751 5750 5749 5748 5747 5746 5745 5744 5743 5741 5739 5738
5825 5821 5818 5814 5811 5808 5804 5801 5798 5794 5791 5788 5786 5783 5781 5779 5776 5774 5771 5769 5767 5764 5762 5760 5759 5757 5755 5753 5753 5752 5751 5750 5749 5748 5747 5746 5745 5745 5744 5742 5741 5739 5737
5818 5814 5812 5810 5807 5804 5800 5796 5793 5790 5788 5785 5783 5780 5778 5776 5773 5770 5768 5766 5764 5762 5760 5758 5757 5755 5753 5751 5750 5750 5749 5748 5748 5746 5746 5745 5744 5744 5743 5742 5741 5739 5737
5810 5807 5805 5804 5801 5798 5795 5792 5789 5786 5784 5781 5778 5776 5774 5772 5769 5767 5765 5762 5760 5758 5757 5756 5755 5753 5751 5749 5748 5747 5747 5747 5746 5745 5744 5744 5743 5743 5742 5741 5740 5739 5737
5802 5800 5799 5797 5795 5793 5790 5788 5784 5782 5779 5776 5773 5771 5769 5767 5764 5762 5760 5759 5757 5755 5753 5752 5751 5750 5748 5747 5746 5745 5745 5745 5744 5743 5743 5743 5742 5742 5742 5741 5740 5739 5738
5799 5795 5793 5791 5790 5788 5786 5783 5780 5777 5774 5771 5768 5766 5763 5761 5759 5757 5755 5754 5753 5752 5750 5749 5747 5746 5746 5745 5743 5742 5742 5742 5742 5742 5742 5743 5742 5741 5741 5740 5739 5739 5738
5792 5791 5788 5785 5783 5782 5781 5779 5775 5772 5770 5766 5764 5761 5759 5756 5753 5751 5750 5749 5748 5748 5747 5746 5744 5743 5743 5742 5741 5739 5739 5740 5740 5741 5741 5742 5741 5740 5740 5740 5739 5738 5738
5787 5786 5786 5782 5779 5778 5775 5772 5770 5768 5766 5763 5760 5757 5754 5752 5749 5748 5746 5745 5744 5743 5743 5742 5740 5739 5739 5739 5738 5737 5737 5737 5738 5739 5740 5741 5740 5740 5739 5739 5738 5737 5737
5779 5779 5779 5775 5772 5769 5767 5764 5763 5761 5759 5756 5754 5752 5749 5745 5742 5742 5742 5741 5740 5739 5739 5739 5737 5736 5734 5734 5735 5735 5735 5735 5736 5737 5737 5738 5738 5738 5738 5737 5737 5736 5736
5770 5771 5770 5768 5765 5762 5759 5757 5755 5753 5751 5749 5747 5745 5743 5741 5739 5739 5737 5734 5733 5732 5733 5733 5732 5731 5730 5730 5730 5732 5733 5734 5734 5735 5735 5736 5736 5736 5736 5736 5736 5736 5735
5761 5759 5760 5760 5757 5753 5750 5749 5747 5746 5744 5741 5739 5738 5737 5736 5735 5734 5731 5729 5728 5728 5727 5727 5727 5725 5725 5725 5726 5728 5729 5730 5732 5732 5733 5733 5734 5735 5735 5735 5736 5735 5735
5751 5750 5749 5748 5747 5746 5744 5742 5740 5738 5736 5733 5731 5730 5729 5729 5729 5727 5724 5723 5722 5721 5721 5722 5722 5720 5719 5721 5722 5724 5725 5727 5729 5730 5731 5732 5733 5734 5734 5734 5735 5735 5735
5744 5742 5740 5738 5737 5736 5735 5733 5731 5729 5727 5725 5723 5721 5721 5721 5721 5719 5717 5716 5716 5715 5715 5715 5714 5715 5715 5716 5718 5720 5722 5725 5726 5728 5729 5730 5731 5732 5732 5733 5734 5734 5734
5736 5734 5731 5729 5727 5726 5723 5720 5718 5715 5715 5714 5713 5712 5711 5712 5712 5712 5710 5709 5710 5709 5709 5709 5708 5708 5709 5711 5710 5711 5716 5721 5724 5726 5728 5728 5729 5730 5732 5732 5733 5733 5734
5728 5725 5723 5721 5718 5716 5713 5710 5708 5706 5705 5704 5703 5702 5702 5702 5703 5703 5702 5702 5702 5703 5703 5702 5702 5701 5703 5705 5703 5701 5702 5708 5717 5724 5724 5725 5727 5729 5730 5731 5731 5732 5732
5720 5717 5716 5712 5709 5706 5704 5700 5698 5695 5694 5692 5692 5691 5692 5694 5694 5694 5694 5693 5694 5695 5695 5695 5696 5694 5695 5698 5700 5697 5694 5697 5706 5714 5720 5723 5725 5726 5728 5730 5730 5731 5731
5712 5709 5706 5702 5699 5697 5694 5690 5686 5681 5678 5678 5679 5680 5682 5683 5684 5685 5685 5685 5686 5686 5687 5688 5690 5689 5690 5691 5694 5697 5699 5700 5698 5701 5710 5717 5721 5723 5725 5727 5729 5730 5730
5704 5699 5696 5692 5689 5686 5684 5680 5675 5671 5669 5669 5669 5669 5670 5672 5674 5675 5676 5676 5677 5678 5679 5680 5681 5683 5684 5686 5688 5691 5693 5695 5697 5697 5698 5705 5712 5719 5723 5725 5727 5728 5729
5694 5690 5686 5681 5677 5675 5672 5669 5666 5662 5660 5658 5658 5657 5659 5660 5662 5664 5666 5667 5668 5669 5670 5672 5673 5675 5677 5679 5682 5684 5686 5687 5689 5692 5693 5697 5702 5711 5717 5721 5723 5726 5727